Weather Service Report


289 
ASUS41 KGYX 252210
RWRGYX
WEATHER ROUNDUP FOR MAINE AND NEW HAMPSHIRE
NATIONAL WEATHER SERVICE GRAY ME
600 PM EDT MON MAY 25 2015

MEZ002-005-006-010-012-015-018-020-021-024-026-027-029-252300-
MAINE
  
CITY           SKY/WX    TMP DP  RH WIND       PRES   REMARKS
PORTLAND       CLOUDY    71  52  50 S8        30.14S                  
BAR HARBOR     CLOUDY    64  52  63 SW10      30.12S                  
WISCASSET      CLOUDY    74  53  48 S7        30.15S                  
ROCKLAND       MOSUNNY   72  52  49 S8        30.12S                  
FRYEBURG       CLOUDY    74  51  44 CALM      30.13F                  
LEWISTONAUBURN CLOUDY    73  54  49 SW5       30.14F                  
AUGUSTA        MOSUNNY   75  50  41 SW8       30.13S                  
WATERVILLE       N/A    N/A N/A N/A MISG        N/A                   
BANGOR         CLOUDY    77  50  38 W3        30.10S                  
GREENVILLE       N/A     70  48  45 VRB5      30.10S                  
MILLINOCKET    CLOUDY    75  48  38 VRB3      30.09S                  
HOULTON        CLOUDY    74  46  36 W13G20    30.05R                  
PRESQUE ISLE   CLOUDY    75  45  33 W16G26    30.03R                  
FRENCHVILLE    CLOUDY    74  44  34 W12G26    29.99R                  
CARIBOU        CLOUDY    74  47  38 W18G25    30.00R                  
$$

NHZ002-005-008-009-011-012-014-252300-
NEW HAMPSHIRE
  
CITY           SKY/WX    TMP DP  RH WIND       PRES   REMARKS
PORTSMOUTH     PTSUNNY   78  55  45 SE10      30.12F                  
ROCHESTER      CLOUDY    78  55  44 S5        30.14S                  
NASHUA         PTSUNNY   81  55  40 S10G17    30.13F                  
MANCHESTER     PTSUNNY   81  56  42 S10       30.10F                  
CONCORD        PTSUNNY   77  56  48 S7        30.13F                  
LACONIA        CLOUDY    77  52  41 SW9       30.10F                  
PLYMOUTH       PTSUNNY   74  59  58 CALM      30.12F                  
BERLIN         CLOUDY    68  54  60 CALM      30.13F                  
WHITEFIELD     CLOUDY    70  54  56 NE3       30.12F                  
JAFFREY        MOSUNNY   79  53  40 S9        30.15F                  
KEENE          MOSUNNY   81  55  41 S13       30.11F                  
LEBANON        MOSUNNY   76  57  51 S7        30.10F                  
MT WASHINGTON  LGT RAIN  46  43  87 SW40        N/A                   
$$

VTZ005-007-008-252300-
VERMONT
  
CITY           SKY/WX    TMP DP  RH WIND       PRES   REMARKS
ST JOHNSBURY     N/A     68  55  63 MISG      30.10F                  
MONTPELIER     CLOUDY    68  53  58 S5        30.15F                  
BURLINGTON     CLOUDY    73  54  51 S6        30.05F                  
$$

MAZ007-012-024-CTZ003-RIZ002-NYZ038-NYZ072-252300-
SOUTHERN NEW ENGLAND AND NY
  
CITY           SKY/WX    TMP DP  RH WIND       PRES   REMARKS
BOSTON         PTSUNNY   75  56  51 S20       30.16S                  
WORCESTER      MOSUNNY   76  55  48 S10G22    30.18F                  
NANTUCKET      PTSUNNY   60  55  83 S9        30.26F                  
PROVIDENCE     PTSUNNY   75  56  51 S14       30.20F                  
HARTFORD       PTSUNNY   82  57  42 S15       30.13S                  
ALBANY         PTSUNNY   86  56  35 S16G25    30.05F                  
NEW YORK CITY  PTSUNNY   82  56  40 S15       30.15S                  
$$

ANZ081-ANZ082-ANZ150-NHZ014-MEZ023>029-252300-
COASTAL MARINE OBSERVATIONS
  
STATION/POSITION TIME  TEMP    WIND        PRES    WAVE
                       AIR SEA DIR/SP/G            HT/PER
                 (UTC) (F)     (DEG/KT/KT) (MB)    (FT/S)
MOUNT DESERT ROC 2200   51     200/ 20/ 21   N/A
MATINICUS ROCK   2200   53     220/ 20/ 21   N/A
ISLE OF SHOALS   2200   69     170/ 21/ 22   N/A
JEFFREYS LEDGE   2103      49                N/A     2/ 4
CASHES LEDGE BUO 2150   55 49                N/A     3/ 5
GEORGES BANK BUO 2150   55 49  200/ 12/ 12   N/A     2/ 5
$$

.............KEY..............
   WCI - WIND CHILL
   TC  - TEMPERATURE IN CELSIUS
   VSB - VISIBILITY IN MILES
   HX  - HEAT INDEX
   FAIR- INDICATES FEW OR NO CLOUDS BELOW 12,000 FT, WITH NO 
         SIGNIFICANT WEATHER AND/OR OBSTRUCTIONS TO VISIBILITY.



Return to Home page


Western Regional Climate Center, wrcc@dri.edu